Home   Weather   Meissen   Past weeks

Flag for Germany Past Weather in Meissen, Saxony, Germany — Yesterday and Last 2 Weeks

Now
43 °F

Passing clouds.


Feels Like: 38 °F
Forecast: 38 / 45 °F
Wind: 8 mph from Southwest

Location: Dresden-Klotzsche

Current Time: Dec 9, 2016 at 12:58:03 am

Latest Report: Dec 9, 2016 at 12:20 am


Visibility: N/A

Pressure: 30.27 "Hg

Humidity: 57%

Dew Point: 28 °F

Location of MeissenLocation

Past Weather in Meissen — Graph

°F

Meissen Temperature Yesterday

Maximum temperature yesterday: 54 °F (at 1:20 pm)
Minimum temperature yesterday: 34 °F (at 6:50 am)
Average temperature yesterday: 43 °F

High & Low Weather Summary for the Past Weeks

 TemperatureHumidityPressure
High54 °F (Dec 8, 1:20 pm)100% (Nov 23, 11:20 pm)30.54 "Hg (Nov 23, 11:20 pm)
Low19 °F (Dec 6, 4:50 am)28% (Dec 8, 3:20 pm)29.80 "Hg (Dec 2, 12:50 am)
Average33 °F87%30.25 "Hg
* Reported Nov 23 11:20 pm — Dec 8 11:20 pm, Meissen, Weather by CustomWeather, © 2016

Note: Actual official high and low records may vary slightly from our data, if they occured in-between our weather recording intervals... More about our weather records

Advertising

Meissen Weather History for the Previous 24 Hours

Scroll right to see more
 ConditionsComfort  
Time TempWeatherWind HumidityBarometerVisibility
11:20 pm
Thu, Dec 8
46 °FClear.8 mph50%30.30 "Hg10 mi
10:50 pm46 °FClear.10 mph46%30.30 "Hg10 mi
10:20 pm45 °FClear.10 mph53%30.30 "Hg10 mi
9:50 pm46 °FClear.12 mph46%30.30 "Hg10 mi
9:20 pm46 °FPassing clouds.7 mph50%30.30 "HgN/A
8:50 pm46 °FClear.6 mph46%30.30 "Hg10 mi
8:20 pm45 °FClear.8 mph49%30.30 "Hg10 mi
7:50 pm46 °FClear.6 mph46%30.33 "Hg10 mi
7:20 pm46 °FClear.12 mph43%30.30 "Hg10 mi
6:50 pm48 °FClear.9 mph40%30.30 "Hg10 mi
6:20 pm48 °FClear.12 mph37%30.30 "Hg10 mi
5:50 pm48 °FClear.9 mph34%30.30 "Hg10 mi
5:20 pm50 °FPassing clouds.10 mph32%30.30 "HgN/A
4:50 pm50 °FClear.12 mph30%30.30 "Hg10 mi
4:20 pm50 °FPassing clouds.10 mph30%30.30 "HgN/A
3:50 pm50 °FSunny.12 mph30%30.30 "Hg10 mi
3:20 pm52 °FPassing clouds.10 mph28%30.30 "HgN/A
2:50 pm52 °FPassing clouds.10 mph30%30.30 "HgN/A
2:20 pm54 °FPassing clouds.6 mph33%30.30 "HgN/A
1:50 pm54 °FPassing clouds.12 mph33%30.30 "HgN/A
1:20 pm54 °FPassing clouds.9 mph33%30.33 "HgN/A
12:50 pm52 °FPassing clouds.8 mph41%30.33 "HgN/A
12:20 pm52 °FPassing clouds.13 mph41%30.33 "HgN/A
11:50 am48 °FSunny.13 mph58%30.36 "Hg10 mi
11:20 am43 °FSunny.10 mph66%30.36 "Hg10 mi
10:50 am41 °FSunny.10 mph70%30.36 "Hg10 mi
10:20 am39 °FSunny.9 mph81%30.39 "Hg10 mi
9:50 am37 °FSunny.7 mph81%30.39 "Hg10 mi
9:20 am37 °FPassing clouds.3 mph81%30.39 "HgN/A
8:50 am36 °FPassing clouds.6 mph81%30.39 "HgN/A
8:20 am36 °FSunny.8 mph81%30.39 "Hg10 mi
7:50 am34 °FClear.7 mph87%30.36 "Hg10 mi
7:20 am34 °FClear.8 mph87%30.39 "Hg10 mi
6:50 am34 °FClear.9 mph87%30.36 "Hg10 mi
6:20 am36 °FClear.10 mph87%30.39 "Hg10 mi
5:50 am36 °FClear.7 mph81%30.39 "Hg10 mi
5:20 am36 °FPassing clouds.5 mph81%30.39 "HgN/A
4:50 am39 °FPassing clouds.6 mph75%30.39 "HgN/A
4:20 am37 °FClear.9 mph81%30.39 "Hg10 mi
3:20 am36 °FClear.9 mph81%30.39 "Hg10 mi
2:20 am36 °FClear.6 mph81%30.42 "Hg10 mi
1:50 am36 °FClear.9 mph81%30.39 "Hg10 mi
1:20 am36 °FClear.12 mph81%30.39 "Hg10 mi
12:50 am36 °FClear.9 mph81%30.39 "Hg10 mi
12:20 am36 °FClear.9 mph81%30.42 "Hg10 mi
Weather by CustomWeather, © 2016

See weather overviewHow to use our weather pages